Regional Weather Roundup
Issued by NWS

Home | Current Version | Previous Version | Graphics & Text | Print | Product List | Glossary On
Versions: 1 2 3 4 5 6 7 8 9 10 11 12 13 14 15 16 17 18 19 20 21 22 23 24 25 26 27 28 29 30 31 32 33 34 35 36 37 38 39 40 41 42 43 44 45 46 47 48 49 50
582
ASUS43 KBIS 271910
RWRND

NORTH DAKOTA REGIONAL WEATHER ROUNDUP
NATIONAL WEATHER SERVICE BISMARCK ND
200 PM CDT THU JUL 27 2017

NOTE: "FAIR" INDICATES FEW OR NO CLOUDS BELOW 12,000 FEET WITH NO
SIGNIFICANT WEATHER AND/OR OBSTRUCTIONS TO VISIBILITY.


NDZ001>003-009>011-017-272000-
NORTHWEST NORTH DAKOTA

CITY           SKY/WX    TMP DP  RH WIND       PRES   REMARKS
WILLISTON      LGT RAIN  66  62  87 S13       30.03R
MINOT          CLOUDY    78  58  49 SE8       30.10S
MINOT AFB      PTSUNNY   78  58  49 SE10      30.08F
$$

NDZ018>021-031>035-040>046-272000-
SOUTHWEST NORTH DAKOTA

CITY           SKY/WX    TMP DP  RH WIND       PRES   REMARKS
BISMARCK       CLOUDY    75  63  66 N8        30.13F
DICKINSON      SUNNY     80  59  48 E25G31    30.07F
GARRISON         N/A     70  63  78 VRB6      30.10R
HETTINGER ARPT SUNNY     88  53  30 S18G24    30.08F
$$

NDZ004>008-012>016-024-026-027-054-272000-
NORTHEAST NORTH DAKOTA

CITY           SKY/WX    TMP DP  RH WIND       PRES   REMARKS
GRAND FORKS    PTSUNNY   84  57  39 VRB5      30.10F
GRND FRKS AFB  MOSUNNY   83  56  40 CALM      30.11F
DEVILS LAKE    CLOUDY    79  57  46 SE8       30.13F
$$

NDZ022-023-025-028>030-036>039-047>053-272000-
SOUTHEAST NORTH DAKOTA

CITY           SKY/WX    TMP DP  RH WIND       PRES   REMARKS
FARGO          PTSUNNY   83  57  41 NW6       30.11F
JAMESTOWN      CLOUDY    80  54  40 E5        30.13F
$$





USA.gov is the U.S. government's official web portal to all federal, state and local government web resources and services.